Погода в Ризе

Турция     41°01′50″N   40°30′47″E
темп.,
°C
ветер,
м/с
пор.,
м/с
влажн.,
%
обл.,
%
осадки,
мм/ч
давл.,
гПа
погр.,
м
13 июня, вс
вс1300:00+16ю2293100 0.1 101448
03:00+16юв1189100 0.2 101334
06:00+16ю1191100 0.1 101493
09:00+18юз118049 0.3 1014287
12:00+21с326530 0.1 1013867
15:00+21ссв226845 0.1 1013844
18:00+20ссв22750 0.0 1013369
21:00+17юв22900 0.0 101364
14 июня, пн
пн1400:00+17юв22782 0.0 101168
03:00+17ююв21720 0.0 101038
06:00+18ююв11685 0.0 100936
09:00+22с21621 0.0 1008344
12:00+24ссз326211 0.0 1008490
15:00+23сз32649 0.0 1007562
18:00+21сз21770 0.0 1007294
21:00+17юз239543 0.0 100874
15 июня, вт
вт1500:00+18зюз239489 0.2 1010248
03:00+17зсз2292100 0.3 1009122
06:00+17з119239 0.1 1010233
09:00+19с118244 0.1 1009359
12:00+23ссз32643 0.0 1009593
15:00+23ссз326511 0.0 1009612
18:00+21сз11748 0.0 1009487
21:00+17ю22916 0.0 101040
16 июня, ср
ср1600:00+16ю229068 0.0 100961
03:00+17ююз228990 0.1 1010103
06:00+18ююз228994 0.1 1011151
09:00+20зсз228150 0.3 1012488
12:00+22с227124 0.2 1011762
15:00+24ссв32612 0.2 1009793
18:00+22с22730 0.0 1010234
21:00+18юв22880 0.0 101031
17 июня, чт
чт1700:00+18ююв22870 0.0 100929
03:00+17ю22830 0.0 100932
06:00+18юз238025 0.0 1011134
09:00+21юз237016 0.4 1013682
12:00+20зсз348269 0.9 1015705
15:00+19з228888 2.7 1016418
18:00+18ю228965 0.5 1017137
21:00+16ююв11871 0.5 101725